• In Denmark
  • List of Countries
  • For 7 days
  • Water Temperature
  • Satellite Maps
  • Weather Map
  • Weather Widgets
  • user-avatar
    Login

    Hourly Weather Hadera

    Today, 23 January, Tuesday

    Time Temperature Precipitation Wind Pressure Humidity
    00:00 +8°C° 0.5 mm 10 mps 709 mmHg 83%
    01:00 +8°C° 0.5 mm 10 mps 709 mmHg 83%
    02:00 +7°C° 0.5 mm 10 mps 709 mmHg 84%
    03:00 +7°C° 1.2 mm 10 mps 709 mmHg 86%
    04:00 +8°C° 1.2 mm 10 mps 709 mmHg 87%
    05:00 +8°C° 1.2 mm 10 mps 709 mmHg 89%
    06:00 +8°C° 0.5 mm 9 mps 710 mmHg 88%
    07:00 +9°C° 0.5 mm 8 mps 710 mmHg 88%
    08:00 +9°C° 0.5 mm 7 mps 711 mmHg 87%
    09:00 +10°C° 0.1 mm 6 mps 711 mmHg 83%
    10:00 +11°C° 0.1 mm 6 mps 712 mmHg 80%
    11:00 +12°C° 0.1 mm 5 mps 713 mmHg 76%
    12:00 +12°C° 0.1 mm 5 mps 713 mmHg 76%
    13:00 +12°C° 0.1 mm 5 mps 713 mmHg 75%
    14:00 +13°C° 0.1 mm 4 mps 713 mmHg 75%
    15:00 +12°C° 0 mm 4 mps 714 mmHg 79%
    16:00 +11°C° 0 mm 4 mps 714 mmHg 82%
    17:00 +11°C° 0 mm 3 mps 714 mmHg 86%
    18:00 +10°C° 0 mm 3 mps 714 mmHg 88%
    19:00 +10°C° 0 mm 3 mps 715 mmHg 89%
    20:00 +10°C° 0 mm 2 mps 715 mmHg 90%
    21:00 +10°C° 0.1 mm 2 mps 715 mmHg 91%
    22:00 +9°C° 0.1 mm 2 mps 715 mmHg 91%
    23:00 +9°C° 0.1 mm 2 mps 716 mmHg 91%

    Tomorrow, 24 January, Wednesday

    Time Temperature Precipitation Wind Pressure Humidity
    00:00 +9°C° 0.3 mm 3 mps 716 mmHg 91%
    01:00 +9°C° 0.3 mm 3 mps 716 mmHg 92%
    02:00 +9°C° 0.3 mm 3 mps 716 mmHg 92%
    03:00 +9°C° 0.4 mm 3 mps 716 mmHg 92%
    04:00 +9°C° 0.4 mm 3 mps 716 mmHg 92%
    05:00 +9°C° 0.4 mm 3 mps 716 mmHg 92%
    06:00 +8°C° 0.5 mm 4 mps 716 mmHg 92%
    07:00 +8°C° 0.5 mm 4 mps 716 mmHg 92%
    08:00 +10°C° 0.5 mm 4 mps 717 mmHg 92%
    09:00 +8°C° 1 mm 4 mps 717 mmHg 91%
    10:00 +8°C° 1 mm 4 mps 717 mmHg 91%
    11:00 +8°C° 1 mm 4 mps 717 mmHg 91%
    12:00 +8°C° 1.7 mm 4 mps 717 mmHg 91%
    13:00 +8°C° 1.7 mm 4 mps 717 mmHg 91%
    14:00 +7°C° 1.7 mm 4 mps 716 mmHg 92%
    15:00 +7°C° 1.1 mm 4 mps 716 mmHg 89%
    16:00 +7°C° 1.1 mm 5 mps 716 mmHg 87%
    17:00 +7°C° 1.1 mm 5 mps 717 mmHg 84%
    18:00 +7°C° 0.5 mm 5 mps 717 mmHg 84%
    19:00 +7°C° 0.5 mm 6 mps 717 mmHg 83%
    20:00 +5°C° 0.5 mm 6 mps 717 mmHg 82%
    21:00 +5°C° 0.4 mm 6 mps 717 mmHg 82%
    22:00 +5°C° 0.4 mm 6 mps 717 mmHg 82%
    23:00 +5°C° 0.4 mm 6 mps 717 mmHg 83%

    Day after tomorrow, 25 January, Thursday

    Time Temperature Precipitation Wind Pressure Humidity
    00:00 +5°C° 0.4 mm 6 mps 717 mmHg 83%
    01:00 +5°C° 0.4 mm 6 mps 717 mmHg 83%
    02:00 +5°C° 0.4 mm 6 mps 717 mmHg 83%
    03:00 +5°C° 0.5 mm 6 mps 716 mmHg 84%
    04:00 +4°C° 0.5 mm 6 mps 716 mmHg 85%
    05:00 +4°C° 0.5 mm 6 mps 716 mmHg 86%
    06:00 +5°C° 0.2 mm 5 mps 716 mmHg 85%
    07:00 +5°C° 0.2 mm 5 mps 716 mmHg 84%
    08:00 +5°C° 0.2 mm 4 mps 716 mmHg 83%
    09:00 +6°C° 0.2 mm 4 mps 716 mmHg 79%
    10:00 +6°C° 0.2 mm 4 mps 716 mmHg 75%
    11:00 +7°C° 0.2 mm 4 mps 716 mmHg 72%
    12:00 +7°C° 0.1 mm 4 mps 716 mmHg 71%
    13:00 +7°C° 0.1 mm 3 mps 716 mmHg 70%
    14:00 +7°C° 0.1 mm 3 mps 715 mmHg 69%
    15:00 +7°C° 0.1 mm 3 mps 715 mmHg 71%
    16:00 +7°C° 0.1 mm 2 mps 715 mmHg 72%
    17:00 +6°C° 0.1 mm 2 mps 715 mmHg 73%
    18:00 +6°C° 0.2 mm 2 mps 715 mmHg 74%
    19:00 +6°C° 0.2 mm 2 mps 716 mmHg 75%
    20:00 +5°C° 0.2 mm 2 mps 716 mmHg 76%
    21:00 +5°C° 0.3 mm 2 mps 716 mmHg 77%
    22:00 +5°C° 0.3 mm 2 mps 715 mmHg 77%
    23:00 +3°C° 0.3 mm 3 mps 715 mmHg 78%

    26 January, Friday

    Time Temperature Precipitation Wind Pressure Humidity
    00:00 +3°C° 0.3 mm 3 mps 715 mmHg 77%
    01:00 +3°C° 0.3 mm 3 mps 715 mmHg 75%
    02:00 +3°C° 0.3 mm 3 mps 715 mmHg 74%
    03:00 +3°C° 0.2 mm 4 mps 714 mmHg 74%
    04:00 +3°C° 0.2 mm 4 mps 714 mmHg 74%
    05:00 +3°C° 0.2 mm 4 mps 714 mmHg 74%
    06:00 +3°C° 0.3 mm 4 mps 714 mmHg 73%
    07:00 +4°C° 0.3 mm 4 mps 715 mmHg 72%
    08:00 +4°C° 0.3 mm 4 mps 715 mmHg 72%
    09:00 +3°C° 0.5 mm 5 mps 715 mmHg 73%
    10:00 +3°C° 0.5 mm 5 mps 715 mmHg 74%
    11:00 +3°C° 0.5 mm 6 mps 715 mmHg 75%
    12:00 +2°C° 0.7 mm 6 mps 715 mmHg 77%
    13:00 +2°C° 0.7 mm 6 mps 715 mmHg 78%
    14:00 +2°C° 0.7 mm 6 mps 714 mmHg 80%
    15:00 +2°C° 0.6 mm 6 mps 715 mmHg 79%
    16:00 +2°C° 0.6 mm 7 mps 715 mmHg 79%
    17:00 +2°C° 0.6 mm 7 mps 715 mmHg 78%
    18:00 +3°C° 0 mm 6 mps 716 mmHg 76%
    19:00 +3°C° 0 mm 6 mps 716 mmHg 75%
    20:00 +3°C° 0 mm 6 mps 717 mmHg 73%
    21:00 +3°C° 0 mm 6 mps 717 mmHg 72%
    22:00 +5°C° 0 mm 5 mps 717 mmHg 71%
    23:00 +5°C° 0 mm 5 mps 718 mmHg 70%

    27 January, Saturday

    Time Temperature Precipitation Wind Pressure Humidity
    00:00 +5°C° 0 mm 5 mps 718 mmHg 70%
    01:00 +5°C° 0 mm 5 mps 718 mmHg 70%
    02:00 +5°C° 0 mm 5 mps 718 mmHg 70%
    03:00 +5°C° 0 mm 5 mps 718 mmHg 71%
    04:00 +4°C° 0 mm 4 mps 718 mmHg 72%
    05:00 +4°C° 0 mm 4 mps 718 mmHg 73%
    06:00 +4°C° 0 mm 4 mps 719 mmHg 74%
    07:00 +5°C° 0 mm 3 mps 719 mmHg 75%
    08:00 +5°C° 0 mm 3 mps 720 mmHg 75%
    09:00 +8°C° 0 mm 3 mps 720 mmHg 74%
    10:00 +9°C° 0 mm 3 mps 720 mmHg 72%
    11:00 +10°C° 0 mm 3 mps 721 mmHg 70%
    12:00 +10°C° 0 mm 3 mps 721 mmHg 68%
    13:00 +10°C° 0 mm 3 mps 721 mmHg 66%
    14:00 +11°C° 0 mm 3 mps 720 mmHg 64%
    15:00 +10°C° 0 mm 3 mps 721 mmHg 66%
    16:00 +9°C° 0 mm 3 mps 721 mmHg 68%
    17:00 +7°C° 0 mm 3 mps 721 mmHg 71%
    18:00 +7°C° 0 mm 3 mps 721 mmHg 72%
    19:00 +5°C° 0 mm 3 mps 721 mmHg 74%
    20:00 +5°C° 0 mm 2 mps 722 mmHg 75%
    21:00 +5°C° 0 mm 2 mps 722 mmHg 74%
    22:00 +5°C° 0 mm 2 mps 722 mmHg 74%
    23:00 +5°C° 0 mm 2 mps 722 mmHg 73%

    28 January, Sunday

    Time Temperature Precipitation Wind Pressure Humidity
    00:00 +5°C° 0 mm 2 mps 722 mmHg 74%
    01:00 +5°C° 0 mm 3 mps 722 mmHg 74%
    02:00 +5°C° 0 mm 3 mps 722 mmHg 75%
    03:00 +5°C° 0 mm 3 mps 722 mmHg 76%
    04:00 +5°C° 0 mm 3 mps 722 mmHg 77%
    05:00 +5°C° 0 mm 3 mps 722 mmHg 78%
    06:00 +7°C° 0 mm 3 mps 722 mmHg 78%
    07:00 +7°C° 0 mm 3 mps 722 mmHg 78%
    08:00 +8°C° 0 mm 3 mps 723 mmHg 79%
    09:00 +9°C° 0 mm 3 mps 723 mmHg 74%
    10:00 +10°C° 0 mm 3 mps 723 mmHg 69%
    11:00 +12°C° 0 mm 3 mps 723 mmHg 64%
    12:00 +12°C° 0 mm 3 mps 723 mmHg 63%
    13:00 +12°C° 0 mm 3 mps 723 mmHg 62%
    14:00 +12°C° 0 mm 3 mps 723 mmHg 61%
    15:00 +11°C° 0 mm 3 mps 723 mmHg 65%
    16:00 +10°C° 0 mm 3 mps 722 mmHg 69%
    17:00 +9°C° 0 mm 2 mps 722 mmHg 73%
    18:00 +8°C° 0 mm 2 mps 723 mmHg 76%
    19:00 +7°C° 0 mm 2 mps 723 mmHg 79%
    20:00 +7°C° 0 mm 2 mps 723 mmHg 82%
    21:00 +6°C° 0 mm 2 mps 723 mmHg 83%
    22:00 +6°C° 0 mm 2 mps 723 mmHg 84%
    23:00 +6°C° 0 mm 2 mps 723 mmHg 84%
    Show more